Weather History for Crestview, FL

Change the Weather History Date:

Wednesday, November 23, 2011

  Actual Average Record
Temperature  
Mean Temperature 60 °F -  
Max Temperature 70 °F - - ()
Min Temperature 48 °F - - ()
Degree Days  
Heating Degree Days 5    
Growing Degree Days 10 (Base 50)    
Moisture  
Dew Point 61 °F    
Average Humidity 87    
Maximum Humidity 100    
Minimum Humidity 53    
Precipitation  
Precipitation 0.26 in - - ()
Sea Level Pressure  
Sea Level Pressure 30.08 in    
Wind  
Wind Speed 7 mph (NW)    
Max Wind Speed 13 mph    
Max Gust Speed 21 mph    
Visibility 9 miles    
Events Rain    
T = Trace of Precipitation, MM = Missing Value Source: NWS Daily Summary

Daily Weather History Graph

Daily Weather History Graph

Search for Another Location

Airport:

Trip Planner

Search our weather history database for the weather conditions in past years. The results will help you decide how hot, cold, wet, or windy it might be!

Date:

Astronomy

Nov. 23, 2011 Rise Set
Actual Time 6:18 AM CST 4:45 PM CST
Civil Twilight 5:53 AM CST 5:11 PM CST
Nautical Twilight 5:23 AM CST 5:41 PM CST
Astronomical Twilight 4:54 AM CST 6:09 PM CST
Moon 4:25 AM CST 3:25 PM CST
Length of Visible Light 11h 18m
Length of Day
10h 26m
Waning Crescent, 3% of the Moon is Illuminated
Nov 23
Waning Crescent
Nov 25
New
Dec 2
First Quarter
Dec 10
Full
Dec 17
Last Quarter

Hourly Weather History & Observations

Time (CST) Temp. Dew Point Humidity Pressure Visibility Wind Dir Wind Speed Gust Speed Precip Events Conditions
12:38 AM 69.8 °F 69.8 °F 100% 30.05 in 2.5 mi WSW 8.1 mph - N/A Rain Light Rain
12:39 AM 69.8 °F 69.8 °F 100% 30.05 in 2.0 mi WSW 6.9 mph - N/A Rain Light Rain
12:40 AM 69.8 °F 69.8 °F 100% 30.05 in 1.8 mi SW 6.9 mph - N/A Rain Heavy Rain
12:44 AM 69.8 °F 69.8 °F 100% 30.05 in 1.8 mi WSW 6.9 mph - N/A Rain Light Rain
12:47 AM 69.8 °F 69.8 °F 100% 30.05 in 2.0 mi SW 5.8 mph - N/A Rain Light Rain
12:48 AM 69.8 °F 69.8 °F 100% 30.04 in 3.0 mi SW 5.8 mph - N/A Rain Light Rain
12:55 AM 70.2 °F 69.3 °F 97% 30.04 in 8.0 mi SW 5.8 mph - 0.20 in Rain Light Rain
12:58 AM 69.8 °F 69.8 °F 100% 30.04 in 8.0 mi SSW 3.5 mph - N/A Rain Light Rain
1:01 AM 69.8 °F 68.0 °F 94% 30.04 in 8.0 mi SW 5.8 mph - N/A Rain Rain
1:08 AM 69.8 °F 68.0 °F 94% 30.03 in 9.0 mi SSW 4.6 mph - N/A Rain Light Rain
1:55 AM 69.6 °F 68.5 °F 96% 30.02 in 10.0 mi SSW 5.8 mph - 0.05 in   Clear
2:06 AM 69.8 °F 68.0 °F 94% 30.02 in 10.0 mi WSW 3.5 mph - N/A   Clear
2:55 AM 68.0 °F 66.0 °F 93% 30.03 in 10.0 mi SW 6.9 mph - 0.01 in   Scattered Clouds
3:09 AM 68.0 °F 66.2 °F 94% 30.03 in 10.0 mi WSW 5.8 mph - N/A   Mostly Cloudy
3:28 AM 68.0 °F 66.2 °F 94% 30.02 in 10.0 mi West 4.6 mph - N/A   Overcast
3:31 AM 68.0 °F 66.2 °F 94% 30.03 in 10.0 mi Variable 5.8 mph - N/A   Overcast
3:32 AM 68.0 °F 66.2 °F 94% 30.03 in 10.0 mi WNW 6.9 mph - N/A   Overcast
3:33 AM 68.0 °F 66.2 °F 94% 30.03 in 10.0 mi WNW 8.1 mph - N/A   Overcast
3:41 AM 68.0 °F 66.2 °F 94% 30.03 in 10.0 mi NW 9.2 mph - N/A   Overcast
3:44 AM 68.0 °F 66.2 °F 94% 30.03 in 10.0 mi NW 12.7 mph - N/A   Overcast
3:51 AM 68.0 °F 66.2 °F 94% 30.03 in 10.0 mi NW 10.4 mph - N/A   Overcast
3:55 AM 67.5 °F 65.3 °F 93% 30.03 in 10.0 mi NW 10.4 mph - N/A   Overcast
4:23 AM 66.2 °F 64.4 °F 94% 30.04 in 10.0 mi North 6.9 mph - N/A   Overcast
4:24 AM 66.2 °F 64.4 °F 94% 30.04 in 10.0 mi North 8.1 mph - N/A   Overcast
4:38 AM 64.4 °F 62.6 °F 94% 30.04 in 10.0 mi North 4.6 mph - N/A   Overcast
4:52 AM 64.4 °F 62.6 °F 94% 30.04 in 10.0 mi NNW 4.6 mph - N/A   Overcast
4:55 AM 64.8 °F 63.3 °F 95% 30.04 in 10.0 mi NNW 4.6 mph - N/A   Overcast
5:15 AM 64.4 °F 62.6 °F 94% 30.05 in 10.0 mi North 4.6 mph - N/A   Mostly Cloudy
5:55 AM 63.7 °F 62.2 °F 95% 30.06 in 10.0 mi NNW 5.8 mph - N/A   Scattered Clouds
6:08 AM 64.4 °F 62.6 °F 94% 30.06 in 10.0 mi NNW 8.1 mph - N/A   Mostly Cloudy
6:24 AM 64.4 °F 62.6 °F 94% 30.07 in 10.0 mi NNW 8.1 mph - N/A   Scattered Clouds
6:55 AM 63.3 °F 61.9 °F 95% 30.09 in 10.0 mi NNW 4.6 mph - N/A   Partly Cloudy
7:25 AM 64.4 °F 62.6 °F 94% 30.10 in 10.0 mi NNW 3.5 mph - N/A   Mostly Cloudy
7:55 AM 64.6 °F 62.2 °F 92% 30.11 in 10.0 mi NW 6.9 mph - N/A   Overcast
8:55 AM 65.7 °F 59.5 °F 81% 30.13 in 10.0 mi NW 12.7 mph 20.7 mph N/A   Mostly Cloudy
9:55 AM 66.0 °F 55.9 °F 70% 30.14 in 10.0 mi North 12.7 mph 18.4 mph N/A   Mostly Cloudy
10:55 AM 66.9 °F 55.0 °F 66% 30.12 in 10.0 mi North 6.9 mph - N/A   Partly Cloudy
11:55 AM 68.4 °F 53.1 °F 58% 30.11 in 10.0 mi NNW 10.4 mph - N/A   Partly Cloudy
12:55 PM 69.1 °F 51.8 °F 54% 30.09 in 10.0 mi North 12.7 mph - N/A   Partly Cloudy
1:55 PM 70.0 °F 53.2 °F 55% 30.08 in 10.0 mi NNW 6.9 mph - N/A   Partly Cloudy
2:55 PM 70.3 °F 52.3 °F 53% 30.08 in 10.0 mi North 11.5 mph 18.4 mph N/A   Partly Cloudy
3:55 PM 68.0 °F 51.6 °F 56% 30.10 in 10.0 mi North 11.5 mph - N/A   Clear
4:55 PM 62.4 °F 50.4 °F 65% 30.12 in 10.0 mi North 5.8 mph - N/A   Clear
5:55 PM 57.4 °F 50.4 °F 77% 30.15 in 10.0 mi NNW 6.9 mph - N/A   Clear
6:55 PM 56.5 °F 49.6 °F 78% 30.17 in 10.0 mi North 8.1 mph - N/A   Clear
7:55 PM 56.3 °F 48.9 °F 76% 30.20 in 10.0 mi North 6.9 mph - N/A   Clear
8:55 PM 53.8 °F 47.8 °F 80% 30.22 in 10.0 mi NNW 5.8 mph - N/A   Clear
9:55 PM 52.0 °F 46.9 °F 83% 30.21 in 10.0 mi NNW 6.9 mph - N/A   Clear
10:55 PM 50.2 °F 46.0 °F 86% 30.20 in 10.0 mi NNW 4.6 mph - N/A   Clear
11:55 PM 48.9 °F 45.5 °F 88% 30.20 in 10.0 mi NNW 8.1 mph - N/A   Clear